Flag for Germany Weather past 2 weeks in Sindelfingen, Baden-Württemberg, Germany

Now
52 °F

Clear.


Feels Like: 52 °F
Forecast: 43 / 71 °F
Wind: 2 mph from North

Location: Stuttgart-Echterdingen

Current Time: Jul 30, 2015 at 2:18:44 AM

Latest Report: Jul 30, 2015 at 1:50 AM


Visibility: 10 mi

Pressure: 30.01 "Hg

Humidity: 82%

Dew point: 46 °F

Location of SindelfingenLocation

Historic Weather in Sindelfingen — Graph

°F

Sindelfingen temperature yesterday

Maximum temperature yesterday: 64 °F (at 6:20 PM)
Minimum temperature yesterday: 55 °F (at 1:20 AM)
Average temperature yesterday: 58 °F

Past Weeks' High & Low Weather Summary

 TemperatureHumidityPressure
High95 °F (Jul 22, 2:20 PM)94% (Jul 23, 1:50 AM)30.15 "Hg (Jul 23, 1:50 AM)
Low48 °F (Jul 26, 5:50 AM)26% (Jul 16, 5:20 PM)29.71 "Hg (Jul 24, 7:20 PM)
Average71 °F61%29.96 "Hg
* Reported Jul 15 1:20 AM — Jul 30 1:20 AM, Sindelfingen, Weather by CustomWeather, © 2015

Note: Actual official high and low records may vary slightly from our data, if they occured in-between our weather recording intervals... More about our weather records

Advertising

Sindelfingen weather history for previous 24 hours

 ConditionsComfort  
Time TempWeatherWind HumidityBarometerVisibility
1:20 AM
Thu, Jul 30
54 °FPassing clouds.5 mph77%29.98 "HgN/A
12:50 AM54 °FPassing clouds.8 mph77%29.98 "HgN/A
12:20 AM55 °FPassing clouds.8 mph77%29.98 "HgN/A
11:50 PM
Wed, Jul 29
55 °FPassing clouds.7 mph77%29.98 "HgN/A
11:20 PM55 °FPassing clouds.7 mph77%29.98 "HgN/A
10:50 PM57 °FPassing clouds.6 mph72%29.98 "HgN/A
10:20 PM57 °FPassing clouds.7 mph67%29.98 "HgN/A
9:50 PM57 °FPassing clouds.3 mph67%29.95 "HgN/A
9:20 PM59 °FSunny.8 mph63%29.95 "Hg10 mi
8:50 PM61 °FPassing clouds.8 mph59%29.92 "HgN/A
8:20 PM63 °FSunny.13 mph56%29.92 "Hg10 mi
7:50 PM63 °FSunny.15 mph52%29.92 "Hg10 mi
7:20 PM64 °FPassing clouds.14 mph49%29.92 "HgN/A
6:50 PM64 °FSunny.17 mph49%29.92 "Hg10 mi
6:20 PM64 °FScattered clouds.16 mph49%29.89 "HgN/A
5:50 PM63 °FPassing clouds.14 mph56%29.89 "HgN/A
5:20 PM63 °FScattered clouds.16 mph64%29.89 "HgN/A
4:50 PM61 °FScattered clouds.16 mph72%29.89 "HgN/A
4:20 PM59 °FPartly sunny.15 mph88%29.89 "HgN/A
3:50 PM57 °FDrizzle. Partly sunny.14 mph94%29.89 "HgN/A
3:20 PM59 °FDrizzle. Partly sunny.9 mph94%29.86 "Hg5 mi
2:50 PM59 °FDrizzle. Partly sunny.7 mph88%29.86 "HgN/A
2:20 PM59 °FDrizzle. Partly sunny.7 mph82%29.86 "HgN/A
1:50 PM59 °FPartly sunny.6 mph82%29.86 "HgN/A
1:20 PM59 °FPartly sunny.6 mph82%29.83 "HgN/A
12:50 PM57 °FLight rain. Partly sunny.10 mph88%29.83 "HgN/A
12:20 PM63 °FBroken clouds.7 mph68%29.83 "HgN/A
11:50 AM63 °FBroken clouds.5 mph68%29.83 "HgN/A
11:20 AM63 °FBroken clouds.6 mph68%29.83 "HgN/A
10:50 AM61 °FPartly sunny.3 mph72%29.83 "HgN/A
10:20 AM61 °FPartly sunny.2 mph77%29.83 "HgN/A
9:20 AM59 °FBroken clouds.3 mph77%29.86 "HgN/A
8:50 AM57 °FBroken clouds.3 mph82%29.86 "HgN/A
8:20 AM57 °FPartly sunny.3 mph82%29.86 "HgN/A
7:50 AM55 °FPartly sunny.2 mph82%29.89 "HgN/A
7:20 AM55 °FPartly sunny.2 mph82%29.89 "HgN/A
6:50 AM55 °FPassing clouds.3 mph82%29.89 "HgN/A
6:20 AM55 °FPassing clouds.3 mph82%29.89 "HgN/A
5:50 AM55 °FPassing clouds.3 mph82%29.89 "HgN/A
5:20 AM55 °FPassing clouds.5 mph88%29.89 "HgN/A
4:50 AM55 °FLight rain. Partly cloudy.2 mph88%29.89 "HgN/A
4:20 AM55 °FLight rain. Partly cloudy.3 mph88%29.92 "HgN/A
3:50 AM55 °FLight rain. Partly cloudy.3 mph88%29.92 "HgN/A
3:20 AM55 °FPartly cloudy.5 mph88%29.92 "HgN/A
2:50 AM55 °FPassing clouds.3 mph88%29.92 "HgN/A
2:20 AM55 °FLight rain. Passing clouds.2 mph88%29.92 "HgN/A
Weather by CustomWeather, © 2015

See weather overviewHow to use our weather pages